Location: Tel Aviv
(32.0670°N, 34.7670°E)
Time: 14:34:18
(UTC+03:00)

Vanguard 2 Rocket - Pass Details

Date: 30 January 2022
Orbit: 553 x 3323 km, 32.9° (Epoch: 23 May)

Event Time Altitude Azimuth Distance (km) Brightness Sun altitude
Exits shadow 04:54:02 27° 280° (W) 4,599 9.8 -21.8°
Maximum altitude 05:07:06 75° 203° (SSW) 3,400 9.6 -19.0°
Drops below altitude 10° 05:26:24 10° 122° (ESE) 5,770 12.1 -15.0°
Sets 05:30:20 0° 120° (ESE) 6,537 12.8 -14.2°
